Time,TemperatureF,DewpointF,PressureIn,WindDirection,WindDirectionDegrees,WindSpeedMPH,WindSpeedGustMPH,Humidity,HourlyPrecipIn,Conditions,Clouds,dailyrainin,SoftwareType,DateUTC
2017-06-23 05:45:00,59.9,39.1,30.19,NW,325,10.0,-999.0,46,0.00,,,0.00,Wunderground v.1.15,2017-06-23 11:45:00,
2017-06-23 05:55:00,59.5,39.2,30.19,NNE,13,11.0,-999.0,47,0.00,,,0.00,Wunderground v.1.15,2017-06-23 11:55:00,
2017-06-23 06:05:00,59.3,39.1,30.20,North,9,11.0,-999.0,47,0.00,,,0.00,Wunderground v.1.15,2017-06-23 12:05:00,
2017-06-23 06:15:00,59.3,39.6,30.20,NNW,340,11.0,-999.0,48,0.00,,,0.00,Wunderground v.1.15,2017-06-23 12:15:00,
2017-06-23 06:25:00,59.2,39.5,30.20,North,360,12.0,-999.0,48,0.00,,,0.00,Wunderground v.1.15,2017-06-23 12:25:00,
2017-06-23 06:30:00,59.2,40.6,30.20,North,360,13.0,-999.0,50,0.00,,,0.00,Wunderground v.1.15,2017-06-23 12:30:00,
2017-06-23 06:40:00,58.6,41.0,30.20,NNE,27,15.0,-999.0,52,0.00,,,0.00,Wunderground v.1.15,2017-06-23 12:40:00,
2017-06-23 06:50:00,58.0,41.4,30.22,NNE,28,14.0,-999.0,54,0.00,,,0.00,Wunderground v.1.15,2017-06-23 12:50:00,
2017-06-23 06:55:00,57.6,42.0,30.22,NNW,342,15.0,-999.0,56,0.00,,,0.00,Wunderground v.1.15,2017-06-23 12:55:00,
2017-06-23 07:00:00,57.5,42.4,30.22,North,360,14.0,-999.0,57,0.00,,,0.00,Wunderground v.1.15,2017-06-23 13:00:00,
2017-06-23 07:10:00,56.7,42.1,30.21,NNE,30,13.0,-999.0,58,0.00,,,0.00,Wunderground v.1.15,2017-06-23 13:10:00,
2017-06-23 07:15:00,56.6,42.4,30.21,NNE,17,14.0,-999.0,59,0.00,,,0.00,Wunderground v.1.15,2017-06-23 13:15:00,
2017-06-23 07:25:00,57.2,42.5,30.22,NNW,329,13.0,-999.0,58,0.00,,,0.00,Wunderground v.1.15,2017-06-23 13:25:00,
2017-06-23 07:30:00,57.2,43.0,30.22,NNW,346,12.0,-999.0,59,0.00,,,0.00,Wunderground v.1.15,2017-06-23 13:30:00,
2017-06-23 07:40:00,57.6,42.9,30.22,NE,36,12.0,-999.0,58,0.00,,,0.00,Wunderground v.1.15,2017-06-23 13:40:00,
2017-06-23 07:50:00,58.1,42.9,30.22,NNW,340,12.0,-999.0,57,0.00,,,0.00,Wunderground v.1.15,2017-06-23 13:50:00,
2017-06-23 08:00:00,59.0,42.8,30.22,NNW,333,9.0,-999.0,55,0.00,,,0.00,Wunderground v.1.15,2017-06-23 14:00:00,
2017-06-23 08:10:00,59.8,43.1,30.21,NNE,20,8.0,-999.0,54,0.00,,,0.00,Wunderground v.1.15,2017-06-23 14:10:00,
2017-06-23 08:15:00,59.9,42.7,30.21,NNW,348,8.0,-999.0,53,0.00,,,0.00,Wunderground v.1.15,2017-06-23 14:15:00,
2017-06-23 08:25:00,60.5,42.3,30.20,North,351,8.0,-999.0,51,0.00,,,0.00,Wunderground v.1.15,2017-06-23 14:25:00,
2017-06-23 08:35:00,60.1,42.4,30.20,NE,40,8.0,-999.0,52,0.00,,,0.00,Wunderground v.1.15,2017-06-23 14:35:00,
2017-06-23 08:45:00,60.5,42.8,30.20,NNW,331,8.0,-999.0,52,0.00,,,0.00,Wunderground v.1.15,2017-06-23 14:45:00,
2017-06-23 08:50:00,60.7,43.0,30.20,NW,325,7.0,-999.0,52,0.00,,,0.00,Wunderground v.1.15,2017-06-23 14:50:00,
2017-06-23 09:00:00,62.0,43.7,30.20,North,360,7.0,-999.0,51,0.00,,,0.00,Wunderground v.1.15,2017-06-23 15:00:00,
2017-06-23 09:10:00,61.0,42.7,30.21,North,351,9.0,-999.0,51,0.00,,,0.00,Wunderground v.1.15,2017-06-23 15:10:00,
2017-06-23 09:20:00,60.4,42.7,30.20,NNE,15,8.0,-999.0,52,0.00,,,0.00,Wunderground v.1.15,2017-06-23 15:20:00,
2017-06-23 09:25:00,60.5,42.3,30.20,NW,323,7.0,-999.0,51,0.00,,,0.00,Wunderground v.1.15,2017-06-23 15:25:00,
2017-06-23 09:35:00,61.0,42.7,30.21,North,11,6.0,-999.0,51,0.00,,,0.00,Wunderground v.1.15,2017-06-23 15:35:00,
2017-06-23 09:45:00,61.3,42.5,30.21,NNW,334,7.0,-999.0,50,0.00,,,0.00,Wunderground v.1.15,2017-06-23 15:45:00,
2017-06-23 09:50:00,61.5,42.2,30.21,NW,319,7.0,-999.0,49,0.00,,,0.00,Wunderground v.1.15,2017-06-23 15:50:00,
2017-06-23 10:00:00,62.4,42.4,30.21,NW,306,7.0,-999.0,48,0.00,,,0.00,Wunderground v.1.15,2017-06-23 16:00:00,
2017-06-23 10:10:00,62.7,42.2,30.22,NNW,340,8.0,-999.0,47,0.00,,,0.00,Wunderground v.1.15,2017-06-23 16:10:00,
2017-06-23 10:15:00,63.1,42.0,30.22,NW,324,8.0,-999.0,46,0.00,,,0.00,Wunderground v.1.15,2017-06-23 16:15:00,
2017-06-23 10:25:00,64.3,40.1,30.21,NW,316,8.0,-999.0,41,0.00,,,0.00,Wunderground v.1.15,2017-06-23 16:25:00,
2017-06-23 10:35:00,64.8,38.6,30.21,NNW,345,9.0,-999.0,38,0.00,,,0.00,Wunderground v.1.15,2017-06-23 16:35:00,
2017-06-23 10:45:00,64.8,37.2,30.21,NNW,338,9.0,-999.0,36,0.00,,,0.00,Wunderground v.1.15,2017-06-23 16:45:00,
2017-06-23 10:55:00,65.3,34.7,30.21,NNW,329,10.0,-999.0,32,0.00,,,0.00,Wunderground v.1.15,2017-06-23 16:55:00,
2017-06-23 11:00:00,65.6,35.7,30.21,North,360,10.0,-999.0,33,0.00,,,0.00,Wunderground v.1.15,2017-06-23 17:00:00,
2017-06-23 11:10:00,65.8,35.9,30.21,NW,314,8.0,-999.0,33,0.00,,,0.00,Wunderground v.1.15,2017-06-23 17:10:00,
2017-06-23 11:15:00,65.8,36.6,30.21,NNE,25,8.0,-999.0,34,0.00,,,0.00,Wunderground v.1.15,2017-06-23 17:15:00,
2017-06-23 11:25:00,65.5,36.4,30.22,NW,320,9.0,-999.0,34,0.00,,,0.00,Wunderground v.1.15,2017-06-23 17:25:00,
2017-06-23 11:30:00,65.6,37.2,30.22,NW,311,6.0,-999.0,35,0.00,,,0.00,Wunderground v.1.15,2017-06-23 17:30:00,
2017-06-23 11:40:00,65.6,37.2,30.22,NW,319,7.0,-999.0,35,0.00,,,0.00,Wunderground v.1.15,2017-06-23 17:40:00,
2017-06-23 11:50:00,66.3,37.1,30.21,WNW,291,8.0,-999.0,34,0.00,,,0.00,Wunderground v.1.15,2017-06-23 17:50:00,
2017-06-23 11:55:00,66.1,36.9,30.21,WNW,286,9.0,-999.0,34,0.00,,,0.00,Wunderground v.1.15,2017-06-23 17:55:00,
2017-06-23 12:05:00,66.6,35.0,30.22,North,10,7.0,-999.0,31,0.00,,,0.00,Wunderground v.1.15,2017-06-23 18:05:00,
2017-06-23 12:10:00,67.1,35.4,30.22,NW,319,6.0,-999.0,31,0.00,,,0.00,Wunderground v.1.15,2017-06-23 18:10:00,
2017-06-23 12:20:00,67.4,32.2,30.22,NNW,347,8.0,-999.0,27,0.00,,,0.00,Wunderground v.1.15,2017-06-23 18:20:00,
2017-06-23 12:30:00,67.3,32.1,30.22,NW,307,6.0,-999.0,27,0.00,,,0.00,Wunderground v.1.15,2017-06-23 18:30:00,
2017-06-23 12:35:00,67.4,31.3,30.21,NNW,340,6.0,-999.0,26,0.00,,,0.00,Wunderground v.1.15,2017-06-23 18:35:00,
2017-06-23 12:40:00,67.6,31.5,30.21,NW,319,5.0,-999.0,26,0.00,,,0.00,Wunderground v.1.15,2017-06-23 18:40:00,
2017-06-23 12:50:00,68.3,33.0,30.21,NW,317,5.0,-999.0,27,0.00,,,0.00,Wunderground v.1.15,2017-06-23 18:50:00,
2017-06-23 13:00:00,69.8,31.4,30.21,NW,316,7.0,-999.0,24,0.00,,,0.00,Wunderground v.1.15,2017-06-23 19:00:00,
2017-06-23 13:10:00,70.1,30.6,30.21,NW,311,5.0,-999.0,23,0.00,,,0.00,Wunderground v.1.15,2017-06-23 19:10:00,
2017-06-23 13:20:00,70.6,31.0,30.20,WNW,292,7.0,-999.0,23,0.00,,,0.00,Wunderground v.1.15,2017-06-23 19:20:00,
2017-06-23 13:30:00,71.1,32.5,30.20,NW,308,7.0,-999.0,24,0.00,,,0.00,Wunderground v.1.15,2017-06-23 19:30:00,
2017-06-23 13:35:00,71.5,30.6,30.19,NNW,339,9.0,-999.0,22,0.00,,,0.00,Wunderground v.1.15,2017-06-23 19:35:00,
2017-06-23 13:45:00,71.5,31.7,30.19,NNW,346,10.0,-999.0,23,0.00,,,0.00,Wunderground v.1.15,2017-06-23 19:45:00,
2017-06-23 13:55:00,71.8,33.0,30.19,NNW,346,6.0,-999.0,24,0.00,,,0.00,Wunderground v.1.15,2017-06-23 19:55:00,
2017-06-23 14:05:00,72.3,33.5,30.19,NNW,329,8.0,-999.0,24,0.00,,,0.00,Wunderground v.1.15,2017-06-23 20:05:00,
2017-06-23 14:15:00,72.7,33.8,30.19,NW,312,10.0,-999.0,24,0.00,,,0.00,Wunderground v.1.15,2017-06-23 20:15:00,
2017-06-23 14:20:00,72.1,33.3,30.19,NNE,15,10.0,-999.0,24,0.00,,,0.00,Wunderground v.1.15,2017-06-23 20:20:00,
2017-06-23 14:25:00,72.7,33.8,30.19,NNW,348,8.0,-999.0,24,0.00,,,0.00,Wunderground v.1.15,2017-06-23 20:25:00,
2017-06-23 14:35:00,73.2,34.2,30.19,NNW,341,9.0,-999.0,24,0.00,,,0.00,Wunderground v.1.15,2017-06-23 20:35:00,
2017-06-23 14:45:00,73.2,33.2,30.19,West,259,9.0,-999.0,23,0.00,,,0.00,Wunderground v.1.15,2017-06-23 20:45:00,
2017-06-23 14:50:00,73.3,33.2,30.19,NW,321,9.0,-999.0,23,0.00,,,0.00,Wunderground v.1.15,2017-06-23 20:50:00,
2017-06-23 15:00:00,73.0,31.9,30.19,North,360,9.0,-999.0,22,0.00,,,0.00,Wunderground v.1.15,2017-06-23 21:00:00,
2017-06-23 15:10:00,73.5,32.3,30.19,NNW,331,9.0,-999.0,22,0.00,,,0.00,Wunderground v.1.15,2017-06-23 21:10:00,
2017-06-23 15:20:00,73.7,34.6,30.19,North,351,8.0,-999.0,24,0.00,,,0.00,Wunderground v.1.15,2017-06-23 21:20:00,
2017-06-23 15:30:00,74.0,33.8,30.19,North,360,9.0,-999.0,23,0.00,,,0.00,Wunderground v.1.15,2017-06-23 21:30:00,
2017-06-23 15:35:00,73.9,33.7,30.18,NW,321,10.0,-999.0,23,0.00,,,0.00,Wunderground v.1.15,2017-06-23 21:35:00,
2017-06-23 15:45:00,74.0,33.8,30.18,NW,325,11.0,-999.0,23,0.00,,,0.00,Wunderground v.1.15,2017-06-23 21:45:00,
2017-06-23 15:50:00,73.9,34.8,30.18,WNW,300,10.0,-999.0,24,0.00,,,0.00,Wunderground v.1.15,2017-06-23 21:50:00,
2017-06-23 16:00:00,74.0,34.9,30.18,NW,318,9.0,-999.0,24,0.00,,,0.00,Wunderground v.1.15,2017-06-23 22:00:00,
2017-06-23 16:10:00,74.2,35.1,30.17,NNW,348,9.0,-999.0,24,0.00,,,0.00,Wunderground v.1.15,2017-06-23 22:10:00,
2017-06-23 16:15:00,73.9,33.7,30.17,NNW,333,10.0,-999.0,23,0.00,,,0.00,Wunderground v.1.15,2017-06-23 22:15:00,
2017-06-23 16:25:00,74.2,34.0,30.18,NNW,338,8.0,-999.0,23,0.00,,,0.00,Wunderground v.1.15,2017-06-23 22:25:00,
2017-06-23 16:35:00,74.9,34.6,30.18,North,350,8.0,-999.0,23,0.00,,,0.00,Wunderground v.1.15,2017-06-23 22:35:00,
2017-06-23 16:40:00,74.4,33.1,30.18,NE,34,9.0,-999.0,22,0.00,,,0.00,Wunderground v.1.15,2017-06-23 22:40:00,
2017-06-23 16:50:00,74.4,34.2,30.18,WNW,302,8.0,-999.0,23,0.00,,,0.00,Wunderground v.1.15,2017-06-23 22:50:00,
2017-06-23 16:55:00,74.4,35.2,30.18,NW,323,7.0,-999.0,24,0.00,,,0.00,Wunderground v.1.15,2017-06-23 22:55:00,